ONEWEB-0135 (47281 NORAD) Tracking and Keplerian Element Data
This shows tracking and keplerian element data for the satellite.
Feedback or suggestion? Click here.
Element | Value |
Catalog | 47281 |
Name | ONEWEB-0135 |
Epoch Orbit | 176 |
Epoch Day | 15.91667824 |
Epoch Year | 2021 |
RAAN | 29.5689 |
Inclination | 87.4347 |
Eccentricity | 0.0013449 |
Argument of Perigee | 142.6534 |
Mean Anonmoly | 349.7452 |
Mean Motion | 15.26356842 |
Decay Rate | -0.01364295 |
L1 | 1 47281U 20100Z 21015.91667824 -.01364295 00000-0 -57595-1 0 9991 |
L2 | 2 47281 87.4347 29.5689 0013449 142.6534 349.7452 15.26356842 1762 |
Live tracking and technical data element details for ONEWEB-0135 (NORAD 47281). ONEWEB-0135 can be tracked NOW for your location showing map with azimuth and elevation plus other details from your city location.
Track the satellite on the map from your city or location and see movement details for azimuth, elevation, latitude, longitude, range, height, and movement on the map or in text.
IsCatalogInMostPopularTable: catalog: 47281, numindb: 10
Update: records affected: 1
GetName: 47281 ONEWEB-0135
Hit Count: updated at: Sun, 17 Jan 2021 08:23:32 GMT